Weather History for Wink, TX

Change the Weather History Date:

Friday, September 19, 2014

  Actual Average Record
Temperature  
Mean Temperature 75 °F -  
Max Temperature 80 °F 87 °F 104 °F (2005)
Min Temperature 70 °F 61 °F 41 °F (1991)
Cooling Degree Days 10    
Growing Degree Days 25 (Base 50)    
Moisture  
Dew Point 70 °F    
Average Humidity 86    
Maximum Humidity 97    
Minimum Humidity 69    
Precipitation  
Precipitation 0.60 in - - ()
Sea Level Pressure  
Sea Level Pressure 29.87 in    
Wind  
Wind Speed 11 mph ()    
Max Wind Speed 17 mph    
Max Gust Speed -    
Visibility 10.0 miles    
Events Rain , Thunderstorm    
Averages and records for this station are not official NWS values.
T = Trace of Precipitation, MM = Missing Value Source: Averaged Metar Reports

Daily Weather History Graph

Daily Weather History Graph

Search for Another Location

Airport:

Trip Planner

Search our weather history database for the weather conditions in past years. The results will help you decide how hot, cold, wet, or windy it might be!

Date:

Astronomy

Sep. 19, 2014 Rise Set
Actual Time 7:39 AM CDT 7:53 PM CDT
Civil Twilight 7:14 AM CDT 8:17 PM CDT
Nautical Twilight 6:46 AM CDT 8:46 PM CDT
Astronomical Twilight 6:17 AM CDT 9:14 PM CDT
Moon 3:38 AM CDT (9/19) 5:12 PM CDT (9/19)
Length of Visible Light 13h 02m
Length of Day
12h 14m
Waning Crescent, 18% of the Moon is Illuminated
Sep 19
Waning Crescent
Sep 24
New
Oct 1
First Quarter
Oct 8
Full
Oct 15
Last Quarter

Hourly Weather History & Observations

Time (CDT) Temp. Heat Index Dew Point Humidity Pressure Visibility Wind Dir Wind Speed Gust Speed Precip Events Conditions
12:44 AM 73.0 °F - 69.1 °F 87% 29.94 in 10.0 mi ESE 16.1 mph - N/A   Overcast
12:53 AM 73.0 °F - 69.1 °F 87% 29.81 in 10.0 mi ESE 15.0 mph - N/A   Overcast
1:09 AM 73.0 °F - 69.1 °F 87% 29.93 in 10.0 mi ESE 13.8 mph - N/A   Overcast
1:27 AM 72.0 °F - 69.1 °F 91% 29.93 in 10.0 mi ESE 12.7 mph - 0.00 in Rain Light Rain
1:36 AM 72.0 °F - 69.1 °F 91% 29.92 in 10.0 mi ESE 11.5 mph - 0.00 in Rain Light Rain
1:53 AM 72.0 °F - 69.1 °F 91% 29.79 in 10.0 mi ESE 12.7 mph - 0.00 in Rain Light Rain
2:29 AM 71.1 °F - 70.0 °F 96% 29.92 in 10.0 mi ESE 11.5 mph - 0.05 in Rain , Thunderstorm Rain
2:38 AM 71.1 °F - 70.0 °F 96% 29.92 in 10.0 mi ESE 10.4 mph - 0.06 in Rain Rain
2:53 AM 71.1 °F - 70.0 °F 96% 29.79 in 10.0 mi ESE 8.1 mph - 0.09 in Rain Rain
2:58 AM 71.1 °F - 70.0 °F 96% 29.92 in 10.0 mi ESE 8.1 mph - 0.01 in Rain Rain
3:04 AM 71.1 °F - 70.0 °F 96% 29.92 in 10.0 mi ESE 6.9 mph - 0.03 in Rain Rain
3:53 AM 70.0 °F - 69.1 °F 97% 29.78 in 10.0 mi ESE 12.7 mph - 0.51 in Rain Heavy Rain
4:07 AM 70.0 °F - 69.1 °F 97% 29.90 in 10.0 mi East 13.8 mph - 0.05 in Rain Rain
4:32 AM 71.1 °F - 69.1 °F 93% 29.91 in 10.0 mi ESE 11.5 mph - 0.12 in Rain , Thunderstorm Rain
4:41 AM 70.0 °F - 69.1 °F 97% 29.91 in 10.0 mi ESE 10.4 mph - 0.13 in Rain , Thunderstorm Light Rain
2:26 PM 77.0 °F - 70.0 °F 79% 29.93 in 10.0 mi SE 11.5 mph - N/A   Mostly Cloudy
2:53 PM 77.0 °F - 70.0 °F 79% 29.81 in 10.0 mi SE 13.8 mph - N/A   Overcast
3:53 PM 77.0 °F - 69.1 °F 76% 29.78 in 10.0 mi ESE 8.1 mph - N/A   Mostly Cloudy
4:53 PM 79.0 °F - 69.1 °F 72% 29.77 in 10.0 mi ESE 12.7 mph - N/A   Mostly Cloudy
5:04 PM 79.0 °F - 69.1 °F 72% 29.89 in 10.0 mi ESE 10.4 mph - N/A   Scattered Clouds
5:41 PM 80.1 °F 82.9 °F 69.1 °F 69% 29.90 in 10.0 mi East 9.2 mph - N/A   Mostly Cloudy
5:53 PM 79.0 °F - 69.1 °F 72% 29.78 in 10.0 mi ESE 9.2 mph - N/A   Mostly Cloudy
6:14 PM 79.0 °F - 69.1 °F 72% 29.90 in 10.0 mi ESE 12.7 mph - N/A   Scattered Clouds
6:53 PM 78.1 °F - 70.0 °F 76% 29.78 in 10.0 mi East 9.2 mph - N/A   Mostly Cloudy
7:53 PM 78.1 °F - 70.0 °F 76% 29.79 in 10.0 mi East 9.2 mph - N/A   Mostly Cloudy
8:53 PM 75.9 °F - 70.0 °F 82% 29.79 in 10.0 mi ESE 12.7 mph - N/A   Mostly Cloudy
9:53 PM 75.0 °F - 70.0 °F 84% 29.83 in 10.0 mi ESE 8.1 mph - N/A   Overcast
10:53 PM 73.9 °F - 70.0 °F 87% 29.83 in 10.0 mi ESE 16.1 mph - 0.00 in   Scattered Clouds
11:08 PM 73.9 °F - 70.0 °F 87% 29.96 in 10.0 mi SE 17.3 mph - N/A Thunderstorm Mostly Cloudy
11:17 PM 73.9 °F - 70.0 °F 87% 29.96 in 10.0 mi SSE 15.0 mph - N/A   Mostly Cloudy
11:30 PM 73.9 °F - 70.0 °F 87% 29.96 in 10.0 mi SSE 13.8 mph - N/A   Scattered Clouds
11:44 PM 73.9 °F - 69.1 °F 85% 29.96 in 10.0 mi SSE 8.1 mph - N/A Thunderstorm Scattered Clouds
11:53 PM 73.9 °F - 69.1 °F 85% 29.85 in 10.0 mi SE 6.9 mph - N/A   Scattered Clouds